Погода в Зиме

Поиск расширенной информации на нашем сайте:

Полезная информация:

Новости сайта



02.01.2020
Опубликован Долгосрочный прогноз погоды по городам России и ближнего зарубежья на январь 2020 года.
Карты: Прогноз на январь и февраль 2020 года, Сравнение прогнозируемой аномалии приземной температуры воздуха на январь 2020 года по разным моделям.




Погода в Зиме - сегодня

Время (UTC), дата Ветер
(°,м/с) 
Видим.   Явления Облачность Т
(°С)
Тd
(°С)
f(%) Тe
(°С)
Pmin
(гПа)
dP
(гПа)
Po
(мм)
O2
(г/м3)
Тmin Tmax R s Состояние
почвы
21 23.11.20 310 (СЗ) н/о    9/9 1000 м 
[Sc]
-5.5 -7.9 83 -5  1036.5  0.8  734  302           
00 24.11.20 330 (СЗ) н/о  слаб. ливневой снег  10/10 600 м кучево-дожд. 
[Cb cap]
-6.6 -8.6 86 -8  1037.8  734  304  -6.6    0.0  равномерный
сухой снег
100% 
03 24.11.20 340 (С) 4000 м  слаб. ливневой снег  10/10 600 м кучево-дожд. 
[Cb cap]
-6 -8.1 85 -6  1038.8  735  304  -6.7         
06 24.11.20 010 (С) 20000 м  {ливн. осадки}  9/9 1000 м 
[Sc]
-5.3 -8.8 76 -7  1038.4  -0.2  735  303           
09 24.11.20 350 (С) 4000 м  слаб. ливневой снег  10/10 600 м кучево-дожд. 
[Cb cap]
-5.7 -8.9 78 -5  1039.1  0.6  735  303           
12 24.11.20 060 (СВ) н/о  {ливн. осадки}  10/10 600 м кучево-дожд. 
[Cb cap]
-6.3 -8.5 84 -6  1040.1  0.8  736  304    -5.2  0.3     
15 24.11.20 тихо ()   н/о    10/10 1000 м 
[Sc]
-6.3 -8.5 84 -6  1040.1  0.5  736  305           
18 24.11.20 070 (В) н/о    10/10 1000 м 
[Sc]
-7.3 -8.6 90 -7  1041.2  0.3  737  306           
21 24.11.20 070 (В) н/о    10/10 1000 м 
[Sc]
-10.3 -11.1 94 -10  1041.6  -0.3  736  309           
00 25.11.20 050 (СВ) н/о  в посл. час ливневой снег  10/10 600 м кучево-дожд. 
[Cb cap]
-9.3 -10.6 90 -9  1041.9  0.5  737  308  -10.7    0.0  равномерный
сухой снег
100% 
03 25.11.20 080 (В) 20000 м    10/6 1000 м средняя, верхняя 
[Sc|Ac trans|Ci fib]
-6.7 -10.6 74 -6  1041.8  0.4  737  305           
06 25.11.20 140 (ЮВ) 20000 м    10/4 1000 м средняя, верхняя 
[Sc|Ac trans|Ci fib]
-5.7 -14.1 52 -9  1041.3  -0.2  737  304           
09 25.11.20 130 (ЮВ) 20000 м    3/3 1000 м 
[Sc]
-8.1 -14.8 58 -10  1042.2  0.4  737  307           
12 25.11.20 тихо ()   н/о    ясно 
-13.8 -16 83 -14  1044.5  0.9  738  314    -4.9       
15 25.11.20 350 (С) н/о    ясно 
-16.9 -18.3 89 -17  1045.9  0.5  738  319           
18 25.11.20 тихо ()   н/о    10/0 средняя, верхняя 
[Ac trans|Ci fib]
-18.3 -19.9 87 -18  1046.4  0.2  738  320           
21 25.11.20 тихо ()   н/о    10/0 верхняя 
[Ci fib]
-19.6 -21.2 87 -20  1046.8  738  322           
00 26.11.20 тихо ()   н/о    10/5 1000 м средняя, верхняя 
[Sc|Ac trans|Ci fib]
-19.3 -20.9 87 -19  1047.5  0.8  739  322  -19.9      равномерный
сухой снег
100% 
03 26.11.20 тихо ()   4000 м  дымка  10/3 1000 м верхняя 
[Sc|Ci fib]
-17.3 -19.7 82 -17  1048.1  740  320           
06 26.11.20 тихо ()   4000 м  дымка  10/5 1000 м верхняя 
[Sc|Ci fib]
-12.4 -15.5 78 -12  1046.4  -0.5  739  313           
09 26.11.20 тихо ()   20000 м  дымка  9/9 1000 м 
[Sc]
-11.2 -13.7 82 -11  1046.7  0.6  740  312           
12 26.11.20 100 (В) н/о    9/9 1000 м 
[Sc]
-11.3 -13.2 86 -11  1047.9  1.1  741  312    -11.1       
15 26.11.20 тихо ()   н/о    10/10 1000 м 
[Sc]
-11.3 -12.9 88 -11  1048  0.1  741  313           
18 26.11.20 070 (В) н/о    10/10 1000 м 
[Sc]
-11.2 -12.7 89 -11  1048.3  0.3  741  312           
21 26.11.20 060 (СВ) н/о    10/10 1000 м 
[Sc]
-12 -13.7 87 -12  1048.3  -0.2  741  313           
Время (UTC), дата Ветер
(°,м/с) 
Видим.   Явления Облачность Т
(°С)
Тd
(°С)
f(%) Тe
(°С)
Pmin
(гПа)
dP
(гПа)
Po
(мм)
O2
(г/м3)
Тmin Tmax R s Состояние
почвы

Для получения пояснительной информации подведите курсор к названию столбца.

ПОГОДА в Зиме - архив

Всё, что Вы хотите узнать о погоде в Зиме - удобно и подробно!

Выберите нужную дату (начиная с 1 января 2019* года) и нажмите кнопку "Найти".
Будут отображены архивные сводки погоды по пункту Зима, начиная с указанной даты.


Отображать данные в формате CSV (для использования в таблицах Excel)


Внимание! Наш архив погоды предназначен исключительно для личного некоммерческого использования в познавательных целях. Если Вам необходимы официальные справки о состоянии погоды (для производственных, юридических, коммерческих и т.п. целей), обращайтесь в органы Росгидромета.

*Примечание: данная дата относится к архиву по метеостанциям СССР (Россия, СНГ, Балтия).
Архив по метеостанциям Зарубежной Европы и Азии (кроме Китая) хранится 10 дней, по другим регионам земного шара (Китай, Африка, Америка, Австралия, Океания) - 1 день.

Зима - район местоположения метеостанции


Название, широта, долгота, высота метеостанции:
Зима 53.9°ш. 102.1°д. 458 м над ур. моря [Российская Федерация]

Дополнительная информация

В oтличие oт бoльшинства пoгoдных сайтoв мы публикуем пoдрoбную метеoинфoрмацию в детальнoм прoфессиoнальнoм фoрмате.

Характеристики температуры и влажнoсти вoздуха измеряются на высoте 2 м в тени вдали oт зданий и деревьев.
Скoрoсть ветра измеряется на высoте 10 м (на урoвне рoста челoвека скoрoсть ветра ниже в 1.5-2 раза). Если метеoстанция нахoдится в гoрoде или в лесу, тo скoрoсть ветра занижена на 2-4 м/с пo сравнению с oткрытым местoм. Скoрoсть ветра над акватoриями крупных рек и oзёр, а также на вершинах хoлмoв на 2-5 м/с выше, чем в oбычных услoвиях.
Атмoсфернoе давление в разных тoчках местнoсти мoжет значительнo oтличаться oт давления на метеoстанции, в зависимoсти oт услoвий рельефа (при пoдъёме на 10 м давление пoнижается примернo на 1 мм рт.ст.).